Weather History for KFNB - February, 2014

Change the Weather History Date:

Friday, February 28, 2014

  Actual Average Record
Temperature  
Mean Temperature 34 °F -  
Max Temperature 50 °F 49 °F 76 °F (1972)
Min Temperature 18 °F 26 °F -10 °F (1962)
Degree Days  
Heating Degree Days 31    
Moisture  
Dew Point 16 °F    
Average Humidity 56    
Maximum Humidity 78    
Minimum Humidity 34    
Precipitation  
Precipitation 0.00 in - - ()
Sea Level Pressure  
Sea Level Pressure 29.92 in    
Wind  
Wind Speed 12 mph (ESE)    
Max Wind Speed 16 mph    
Max Gust Speed 25 mph    
Visibility 10 miles    
Events      
Averages and records for this station are not official NWS values.
T = Trace of Precipitation, MM = Missing Value Source: NWS Daily Summary

Daily Weather History Graph

Daily Weather History Graph

Search for Another Location

Airport or City:

Trip Planner

Search our weather history database for the weather conditions in past years. The results will help you decide how hot, cold, wet, or windy it might be!

Date:

Astronomy

Feb. 28, 2014 Rise Set
Actual Time 6:57 AM CST 6:13 PM CST
Civil Twilight 6:29 AM CST 6:40 PM CST
Nautical Twilight 5:58 AM CST 7:11 PM CST
Astronomical Twilight 5:27 AM CST 7:43 PM CST
Moon 6:12 AM CST (2/28) 5:51 PM CST (2/28)
Length of Visible Light 12h 10m
Length of Day
11h 15m
Waning Crescent, 1% of the Moon is Illuminated
Feb 28
Waning Crescent
Mar 1
New
Mar 8
First Quarter
Mar 16
Full
Mar 23
Last Quarter

Hourly Weather History & Observations

Time (CST) Temp. Windchill Dew Point Humidity Pressure Visibility Wind Dir Wind Speed Gust Speed Precip Events Conditions
12:53 AM 19.9 °F 6.7 °F 3.0 °F 48% 29.92 in 10.0 mi ESE 13.8 mph - N/A   Clear
1:53 AM 19.0 °F 6.1 °F 3.0 °F 50% 29.91 in 10.0 mi ESE 12.7 mph - N/A   Clear
2:53 AM 18.0 °F 6.9 °F 3.9 °F 54% 29.88 in 10.0 mi SE 9.2 mph - N/A   Clear
3:53 AM 18.0 °F 6.1 °F 3.9 °F 54% 29.86 in 10.0 mi SE 10.4 mph - N/A   Clear
4:53 AM 18.0 °F 6.9 °F 5.0 °F 57% 29.84 in 10.0 mi SE 9.2 mph - N/A   Clear
5:53 AM 18.0 °F 6.9 °F 5.0 °F 57% 29.85 in 10.0 mi ESE 9.2 mph - N/A   Clear
6:53 AM 18.0 °F 7.7 °F 6.1 °F 60% 29.83 in 10.0 mi SE 8.1 mph - N/A   Clear
7:53 AM 19.9 °F 7.9 °F 7.0 °F 57% 29.83 in 10.0 mi SE 11.5 mph - N/A   Clear
8:53 AM 26.1 °F 15.0 °F 9.0 °F 49% 29.85 in 10.0 mi SSE 12.7 mph - N/A   Clear
9:53 AM 32.0 °F 22.1 °F 12.0 °F 44% 29.87 in 10.0 mi SSE 13.8 mph - N/A   Clear
10:53 AM 37.0 °F 28.1 °F 14.0 °F 39% 29.84 in 10.0 mi SSE 15.0 mph - N/A   Clear
11:53 AM 45.0 °F 38.5 °F 18.0 °F 34% 29.82 in 10.0 mi South 13.8 mph - N/A   Clear
12:53 PM 48.9 °F - 24.1 °F 38% 29.81 in 10.0 mi SSW 16.1 mph - N/A   Clear
1:53 PM 50.0 °F - 26.1 °F 39% 29.80 in 10.0 mi SW 11.5 mph - N/A   Clear
2:53 PM 50.0 °F - 28.0 °F 43% 29.82 in 10.0 mi SSW 11.5 mph 19.6 mph N/A   Overcast
3:53 PM 48.9 °F - 28.0 °F 44% 29.84 in 10.0 mi WSW 9.2 mph - N/A   Overcast
4:53 PM 46.9 °F - 28.9 °F 50% 29.84 in 10.0 mi WSW 5.8 mph - N/A   Overcast
5:53 PM 46.0 °F 43.9 °F 28.9 °F 51% 29.87 in 10.0 mi West 4.6 mph - N/A   Overcast
6:20 PM 39.0 °F 31.0 °F 21.0 °F 49% 29.88 in 10.0 mi North 13.8 mph - N/A   Overcast
6:53 PM 37.0 °F 28.1 °F 19.9 °F 50% 29.94 in 10.0 mi North 15.0 mph 21.9 mph N/A   Overcast
7:53 PM 32.0 °F 21.6 °F 21.9 °F 66% 30.00 in 10.0 mi North 15.0 mph 25.3 mph N/A   Overcast
8:53 PM 28.0 °F 16.1 °F 21.9 °F 78% 30.03 in 10.0 mi North 16.1 mph 25.3 mph 0.00 in   Mostly Cloudy
9:27 PM 28.0 °F 17.0 °F 21.9 °F 78% 30.04 in 10.0 mi North 13.8 mph - N/A   Overcast
9:53 PM 28.0 °F 16.5 °F 21.9 °F 78% 30.09 in 10.0 mi North 15.0 mph 20.7 mph N/A   Overcast
10:44 PM 26.1 °F 14.0 °F 19.0 °F 75% 30.08 in 10.0 mi North 15.0 mph 24.2 mph N/A   Overcast
10:53 PM 25.0 °F 12.6 °F 18.0 °F 75% 30.12 in 10.0 mi North 15.0 mph - N/A   Overcast
11:02 PM 25.0 °F 13.6 °F 19.0 °F 78% 30.09 in 10.0 mi North 12.7 mph - N/A   Overcast
11:53 PM 23.0 °F 10.1 °F 17.1 °F 78% 30.13 in 10.0 mi North 15.0 mph - N/A   Overcast